EXPRESS 80

Last updated on Wed Oct 22 2025 00:02:50 GMT+0000 (Coordinated Universal Time)

1 45986U 20053B 25293.69389190 -.00000140 00000+0 00000+0 0 9992 2 45986 0.0154 243.9501 0044469 52.3125 63.3117 1.00288912 19230
UTC large
Height (km)
Speed (km/s)
/
Latitude / Longitude
Inclination (degrees)
Orbital Period (minutes)
Azimuth
Elevation
Range (km)
Doppler Factor

Next 0 passes for location: London (51.5072 / 0.1276)

Sorry there are no passes over London.